Showing default

NAVSTAR 73 (USA 260), 40534

Orbit data source: Space-Track

NAVSTAR 73 (USA 260), 40534 is a payload satellite owned by USAF SMC (US) in MEO that was launched on Wed, 25 Mar 2015 UTC via a DELTA 4M+(4,2) launch vehicle from the Air Force Eastern Test Range (AFETR). Payload-class satellites include a variety of spacecraft equipped with specific instruments for various scientific and technological missions. These include communications satellites like Starlink; space stations such as the ISS; scientific satellites like the Hubble; Earth observation satellites from companies like Planet Labs, Umbra, and HawkEye 360; GPS; miniature CubeSats for education and research; and military/defense satellites.

Loading next visibility...
Identifier
40534, 2015-013A
Orbit
MEO
Last TLE update
18 hours ago
Origin
Manufacturer
Boeing/ES
Mission
Operational Defense Navigation
Bus & Motor
GPS IIF, AOCS
Mass
1,630 kg wet, ~1,500 kg dry
Launch date (UTC)
2015-03-25 (10 years ago)
Launch vehicle
DELTA 4M+(4,2)
Launch site
Air Force Eastern Test Range (AFETR)
Object type
Payload
Rocket body
Debris
Shape & HBR
Box + 2 Pan, 18 m
Radar Cross Section
13.960 m², Large (>1 m²)

Expand to show TLE details & history

TLE from 18 hours ago
0 NAVSTAR 73 (USA 260)
1 40534U 15013A   25188.54370760  .00000092  00000-0  00000-0 0  9993
2 40534  53.2329 218.4354 0099313  35.2387 325.4910  2.00572073 74913
Epoch: 2025-07-07T13:02Z
TLE epoch observation values (Epoch: 2025-07-07T13:02:56.336Z)
Latitude
-0.00006°
Longitude
96.96301°
Altitude
19,965.21 km
Speed
3.906 km/s
True Right ascension
14h 33m 47s
True Declination
0° 00' 00"
Sunlit
Object was in daylight at epoch
Visualization orbit readout
Latitude
-9.25296°
Longitude
-76.08159°
Altitude
20,424.697 km
Speed
3.839 km/s
Apparent Right ascension
03h 37m 25s
Apparent Declination
-16° 13' 06"
Sunlit
Object is in daylight
Visualization observer readout
Local Sidereal Time
19:26:05
Azimuth
81.551° E
Elevation
-35.347°
Doppler factor
1
Orbital elements
Apogee altitude
20,445.314 km
Perigee altitude
19,917.769 km
Semi-major axis
26,559.678 km
Eccentricity
0.00993
Inclination
53.2329°
RAAN
218.4354°
Arg. of periapsis
35.2387°
True anomaly
Unknown
Mean anomaly
325.491°
Eccentric anomaly
Unknown
Mean motion
0.50143 °/min
Orbital period
717.95 mins
BSTAR
0
Loading maneuver chart data...
Loading SW <> Apogee altitude chart data...
Loading historical data...
Loading historical data...
Loading historical data...
Loading historical data...
Loading historical data...
Loading historical data...
Loading historical data...

NAVSTAR 73 (USA 260) Visibility forecast

Observer location: undefined°, undefined°

Span
Click to sort rows by Start time (UTC) header in descending order
Start Az.
Max El. time (UTC)
Max El. Az.
Max El.
End time (UTC)
End Az.
133 mins2025-07-08 16:11:33.009Z319.291° NNW2025-07-08 17:16:33.009Z294.145° NW17.61°2025-07-08 18:24:33.009Z265.746° W
290 mins2025-07-08 23:57:33.009Z162.055° S2025-07-09 02:21:33.009Z95.462° ESE40.122°2025-07-09 04:47:33.009Z50.084° ENE
|